TimeMDT,TemperatureF,Dew PointF,Humidity,Sea Level PressureIn,VisibilityMPH,Wind Direction,Wind SpeedMPH,Gust SpeedMPH,PrecipitationIn,Events,Conditions,WindDirDegrees,DateUTC
12:53 AM,48.9,32.0,52,30.29,10.0,NE,4.6,-,N/A,,Clear,40,2013-05-11 06:53:00
1:53 AM,44.1,30.9,60,30.29,10.0,Calm,Calm,-,N/A,,Clear,0,2013-05-11 07:53:00
2:53 AM,39.9,30.0,68,30.29,10.0,South,3.5,-,N/A,,Partly Cloudy,170,2013-05-11 08:53:00
3:53 AM,41.0,30.9,67,30.28,10.0,Calm,Calm,-,N/A,,Clear,0,2013-05-11 09:53:00
4:53 AM,37.9,30.0,73,30.28,10.0,Calm,Calm,-,N/A,,Clear,0,2013-05-11 10:53:00
5:53 AM,37.9,30.0,73,30.27,10.0,Calm,Calm,-,N/A,,Clear,0,2013-05-11 11:53:00
6:53 AM,36.0,28.9,76,30.28,10.0,Calm,Calm,-,N/A,,Clear,0,2013-05-11 12:53:00
7:53 AM,42.1,32.0,67,30.27,10.0,Calm,Calm,-,N/A,,Clear,0,2013-05-11 13:53:00
8:53 AM,50.0,33.1,52,30.24,10.0,Calm,Calm,-,N/A,,Clear,0,2013-05-11 14:53:00
9:53 AM,55.9,33.1,42,30.22,10.0,Calm,Calm,-,N/A,,Clear,0,2013-05-11 15:53:00
10:53 AM,63.0,32.0,31,30.20,10.0,Calm,Calm,-,N/A,,Clear,0,2013-05-11 16:53:00
11:53 AM,64.9,32.0,29,30.19,10.0,Calm,Calm,-,N/A,,Clear,0,2013-05-11 17:53:00
12:53 PM,70.0,28.9,22,30.16,10.0,NNW,16.1,20.7,N/A,,Scattered Clouds,330,2013-05-11 18:53:00
1:53 PM,72.0,28.0,20,30.16,10.0,NNW,8.1,-,N/A,,Mostly Cloudy,330,2013-05-11 19:53:00
2:53 PM,73.0,28.0,19,30.15,10.0,NNW,15.0,21.9,N/A,,Mostly Cloudy,330,2013-05-11 20:53:00
3:42 PM,68.0,35.6,30,30.27,9.0,NNW,5.8,23.0,0.00,Rain,Light Rain,340,2013-05-11 21:42:00
3:53 PM,69.1,32.0,25,30.17,10.0,SW,8.1,-,0.00,,Mostly Cloudy,230,2013-05-11 21:53:00
4:53 PM,66.9,34.0,30,30.17,10.0,North,10.4,26.5,0.00,Rain,Light Rain,360,2013-05-11 22:53:00
5:53 PM,71.1,32.0,24,30.15,10.0,NNW,4.6,-,0.01,,Mostly Cloudy,340,2013-05-11 23:53:00
6:53 PM,69.1,30.9,24,30.14,10.0,WNW,3.5,-,N/A,,Scattered Clouds,290,2013-05-12 00:53:00
7:53 PM,70.0,32.0,25,30.11,10.0,West,3.5,-,N/A,,Partly Cloudy,270,2013-05-12 01:53:00
8:53 PM,66.9,30.9,26,30.10,10.0,West,5.8,-,N/A,,Overcast,280,2013-05-12 02:53:00
9:53 PM,63.0,32.0,31,30.12,10.0,NW,4.6,-,N/A,,Clear,320,2013-05-12 03:53:00
10:53 PM,53.1,33.1,47,30.13,10.0,SE,3.5,-,N/A,,Clear,140,2013-05-12 04:53:00
11:53 PM,50.0,34.0,54,30.13,10.0,South,5.8,-,N/A,,Clear,170,2013-05-12 05:53:00